Station NPXN6 - Norrie Point, Hudson River Reserve, NY Image indicating link to RSS feed of recent meteorological observations for station NPXN6


Conditions at NPXN6 as of
(2:30 am EDT)
0630 GMT on 05/24/2024:
     

Click on the graph icon in the table below to see a time series plot of the last five days of that observation.

5-day plot - Wind Direction Wind Direction (WDIR):ENE ( 60 deg true )
5-day plot - Wind Speed Wind Speed (WSPD): 1.9 kts
5-day plot - Atmospheric Pressure Atmospheric Pressure (PRES):29.88 in
5-day plot - Air Temperature Air Temperature (ATMP): 57.9 °F
5-day plot - Dew Point Dew Point (DEWP): 56.8 °F
5-day plot -  Wind Speed, Wind Gust and Atmospheric Pressure Combined plot of Wind Speed, Gust, and Air Pressure
Previous observations
TIME
(EDT)
5-day plot - Wind Direction
WDIR
 
5-day plot - Wind Speed
WSPD
kts
5-day plot - Wind Gust
GST
kts
5-day plot - Wave Height
WVHT
ft
5-day plot - Dominant Wave Period
DPD
sec
5-day plot - Average Wave Period
APD
sec
5-day plot - Mean Wave Direction
MWD
 
5-day plot - Atmospheric Pressure
PRES
in
5-day plot - Pressure Tendency
PTDY
in
5-day plot - Air Temperature
ATMP
°F
5-day plot - Water Temperature
WTMP
°F
5-day plot - Dew Point
DEWP
°F
5-day plot - Salinity
SAL
psu
5-day plot - Visibility
VIS
nmi
5-day plot - Tide (above MLLW)
TIDE
ft
2024-05-24 02:15 amENE 1.9-----29.88- 58.1- 57.0---
2024-05-24 02:00 am NE 1.9-----29.88+0.00 58.3- 57.2---
2024-05-24 01:45 amENE 1.0-----29.88- 58.5- 57.4---
2024-05-24 12:30 am NE 1.9-----29.88- 59.7- 58.6---
2024-05-24 12:15 am NE 1.9-----29.88- 60.1- 58.6---
2024-05-24 12:00 am NE 1.0-----29.88+0.03 60.4- 59.0---
2024-05-23 11:45 pm E 1.0-----29.88- 60.8- 59.4---
2024-05-23 11:30 pmENE 1.9-----29.88- 61.2- 59.5---
2024-05-23 11:15 pm NE 1.0-----29.88- 61.5- 59.7---
2024-05-23 11:00 pm NE 1.0-----29.88+0.06 62.1- 60.1---
2024-05-23 10:45 pm- 0.0-----29.88- 62.4- 60.4---
2024-05-23 10:30 pm NE 1.0-----29.88- 63.0- 60.3---
2024-05-23 10:15 pm NE 1.9-----29.88- 63.5- 60.3---
2024-05-23 10:00 pmENE 1.9-----29.88+0.06 64.4- 61.2---
2024-05-23 09:45 pmNNE 1.0-----29.88- 65.7- 61.5---
2024-05-23 09:30 pmESE 1.9-----29.85- 66.4- 62.2---
2024-05-23 09:15 pmENE 1.9-----29.85- 67.1- 62.6---
2024-05-23 09:00 pm E 1.0-----29.85+0.03 68.0- 62.4---
2024-05-23 08:45 pmENE 1.9-----29.85- 69.3- 62.6---
2024-05-23 08:30 pm- 0.0-----29.85- 70.7- 63.3---
2024-05-23 08:15 pm SW 1.9-----29.85- 71.6- 64.9---
2024-05-23 08:00 pm SW 4.1-----29.83+0.00 74.1- 63.1---
2024-05-23 07:45 pm SW 4.1-----29.83- 73.9- 63.7---
2024-05-23 07:30 pmSSW 2.9-----29.83- 73.6- 64.2---
2024-05-23 07:15 pm S 1.9-----29.83- 74.3- 64.9---
2024-05-23 07:00 pm S 1.9-----29.83-0.03 76.1- 62.4---
2024-05-23 06:45 pmSSW 2.9-----29.83- 77.0- 61.5---
2024-05-23 06:30 pm S 4.1-----29.83- 76.1- 64.9---
2024-05-23 06:15 pm S 1.9-----29.83- 76.6- 66.7---
2024-05-23 06:00 pm W 1.9-----29.83-0.03 77.0- 67.5---
2024-05-23 05:45 pm SE 1.9-----29.83- 78.8- 66.4---
2024-05-23 05:30 pm S 4.1-----29.85- 76.1- 66.2---
2024-05-23 05:15 pm S 1.9-----29.83- 77.7- 64.9---
2024-05-23 05:00 pm S 1.0-----29.83-0.06 76.6- 65.5---
2024-05-23 04:45 pmSSW 1.9-----29.85- 76.5- 65.8---
2024-05-23 04:30 pm SW 1.0-----29.85- 80.1- 63.3---
2024-05-23 04:15 pm- 0.0-----29.85- 79.0- 63.3---
2024-05-23 04:00 pm S 1.9-----29.85-0.03 76.5- 64.6---
2024-05-23 03:45 pm S 4.1-----29.85- 75.7- 65.5---
2024-05-23 03:30 pm S 4.1-----29.85- 76.5- 64.6---
2024-05-23 03:15 pm S 1.0-----29.85- 78.3- 62.6---
2024-05-23 03:00 pm S 1.0-----29.85-0.03 77.2- 63.0---
2024-05-23 02:45 pm- 0.0-----29.85- 77.2- 64.4---
2024-05-23 02:30 pm W 1.0-----29.85- 75.0- 66.0---
2024-05-23 02:15 pmWNW 1.9-----29.88- 75.9- 66.0---
2024-05-23 02:00 pm W 1.9-----29.88-0.03 74.7- 65.7---
2024-05-23 01:45 pm- 0.0-----29.88- 75.6- 65.7---
2024-05-23 01:30 pm NW 1.9-----29.88- 74.7- 65.7---
2024-05-23 01:15 pm NW 4.1-----29.88- 73.9- 65.7---
2024-05-23 01:00 pm NW 2.9-----29.88+0.00 73.8- 65.8---
2024-05-23 12:45 pmWNW 4.1-----29.88- 73.4- 65.5---
2024-05-23 12:30 pm NW 2.9-----29.88- 72.3- 66.9---
2024-05-23 12:15 pm NW 4.1-----29.88- 70.9- 68.5---
2024-05-23 12:00 pmNNW 1.9-----29.88+0.03 70.9- 69.1---
2024-05-23 11:45 amWNW 1.9-----29.88- 70.3- 68.2---
2024-05-23 11:30 amSSE 1.9-----29.88- 70.2- 69.3---
2024-05-23 11:15 amSSW 1.0-----29.91- 69.3- 68.7---
2024-05-23 11:00 am- 0.0-----29.91+0.06 69.1- 68.5---
2024-05-23 10:45 amESE 1.9-----29.91- 68.9- 68.0---
2024-05-23 10:30 amENE 1.9-----29.91- 69.1- 68.2---
2024-05-23 10:15 am E 2.9-----29.91- 69.3- 68.2---
2024-05-23 10:00 am E 2.9-----29.88+0.06 68.9- 67.5---
2024-05-23 09:45 amWSW 1.9-----29.88- 69.1- 67.3---
2024-05-23 09:30 am S 2.9-----29.88- 68.7- 66.7---
2024-05-23 09:15 am S 2.9-----29.85- 70.0- 66.7---
2024-05-23 09:00 am SE 2.9-----29.85+0.00 70.7- 66.7---
2024-05-23 08:45 am SE 2.9-----29.88- 70.7- 66.7---
2024-05-23 08:30 amSSE 4.1-----29.88- 70.5- 66.6---
2024-05-23 08:15 am S 6.0-----29.85- 70.3- 66.4---
2024-05-23 08:00 amSSE 2.9-----29.85+0.00 69.4- 66.2---
2024-05-23 07:45 am S 2.9-----29.85- 69.3- 65.7---
2024-05-23 07:30 am S 2.9-----29.85- 67.8- 65.1---
2024-05-23 07:15 am S 4.1-----29.85- 67.6- 64.9---
2024-05-23 07:00 am S 5.1-----29.83-0.03 67.3- 64.9---
2024-05-23 06:45 am S 2.9-----29.83- 68.0- 64.8---
2024-05-23 06:30 am S 7.0-----29.85- 66.9- 64.6---
2024-05-23 06:15 am S 7.0-----29.85- 66.9- 64.6---
2024-05-23 06:00 am S 4.1-----29.85+0.00 66.4- 64.0---
2024-05-23 05:45 am S 4.1-----29.85- 66.9- 64.0---
2024-05-23 05:30 amSSE 2.9-----29.85- 66.9- 63.7---
2024-05-23 05:15 am SE 1.9-----29.85- 67.5- 63.9---
2024-05-23 05:00 amSSE 1.0-----29.85+0.00 67.3- 64.2---
2024-05-23 04:45 am S 2.9-----29.85- 67.5- 64.4---
2024-05-23 04:30 amESE 1.0-----29.85- 67.8- 63.9---
2024-05-23 04:15 amESE 1.0-----29.85- 67.8- 63.9---
2024-05-23 04:00 am- 0.0-----29.85-0.03 68.7- 63.9---
2024-05-23 03:45 am- 0.0-----29.85- 69.8- 63.5---
2024-05-23 03:30 amSSE 1.9-----29.85- 70.3- 63.3---
2024-05-23 03:15 amSSE 2.9-----29.85- 70.7- 63.3---
2024-05-23 03:00 am S 4.1-----29.85+0.00 70.7- 63.3---